STARLINK-32446, 61262

Orbit data source: Space-Track

STARLINK-32446, 61262 is a payload satellite owned by SpaceX/Seattle (US) in LEO that was launched on Wed, 25 Sep 2024 UTC via an FALCON 9 launch vehicle from the Air Force Western Test Range (AFWTR). Payload-class satellites include a variety of spacecraft equipped with specific instruments for various scientific and technological missions. These include communications satellites like Starlink; space stations such as the ISS; scientific satellites like the Hubble; Earth observation satellites from companies like Planet Labs, Umbra, and HawkEye 360; GPS; miniature CubeSats for education and research; and military/defense satellites.

Loading next visibility...
Identifier
61262, 2024-175V
Orbit
LEO
Last TLE update
1 day ago
Origin
Manufacturer
SpaceX/Seattle
Mission
Operational Commercial Communications
Bus & Motor
STARLINK V2M, Unknown motor
Mass
730 kg wet, ~700 kg dry
Launch date (UTC)
2024-09-25 (10 months ago)
Launch vehicle
FALCON 9
Launch site
Air Force Western Test Range (AFWTR)
Object type
Payload
Rocket body
Debris
Shape & HBR
Box + 2 Pan, 14.5 m
Radar Cross Section
33.884 m², Large (>1 m²)

Expand to show TLE details & history

TLE from 1 day ago
0 STARLINK-32446
1 61262U 24175V   25199.41654550  .00000122  00000-0  16246-4 0  9990
2 61262  53.1591 202.3348 0001227  76.0376 284.0761 15.30192449 45584
Epoch: 2025-07-18T09:59Z
TLE epoch observation values (Epoch: 2025-07-18T09:59:49.531Z)
Latitude
-0.00002°
Longitude
115.91009°
Altitude
475.933 km
Speed
7.629 km/s
True Right ascension
13h 29m 20s
True Declination
0° 00' 00"
Sunlit
Object was in daylight at epoch
Visualization orbit readout
Latitude
-8.97°
Longitude
-62.95934°
Altitude
478.037 km
Speed
7.627 km/s
Apparent Right ascension
22h 32m 01s
Apparent Declination
-52° 39' 12"
Sunlit
Object is in daylight
Visualization observer readout
Local Sidereal Time
03:52:50
Azimuth
221.487° SW
Elevation
-25.527°
Doppler factor
1
Orbital elements
Apogee altitude
476.335 km
Perigee altitude
474.653 km
Semi-major axis
6,853.631 km
Eccentricity
0.00012
Inclination
53.1591°
RAAN
202.3348°
Arg. of periapsis
76.0376°
True anomaly
284.06246°
Mean anomaly
284.0761°
Eccentric anomaly
284.06928°
Mean motion
3.82527 °/min
Orbital period
94.11 mins
BSTAR
0.000016246
Loading maneuver chart data...
Loading SW <> Apogee altitude chart data...
Loading historical data...
Loading historical data...
Loading historical data...
Loading historical data...
Loading historical data...
Loading historical data...
Loading historical data...
|